Theta_e
360 359 359 358 355 356 356 355 353 353 352 350 349 346 346 347 343 344 346 347 345 345 349 350 346 345 345 345 345 348 349 347 349 349 348 350 348 346 345 348 345 345 345
358 359 358 356 356 355 355 354 354 351 352 350 349 350 347 348 345 346 347 345 343 344 345 346 346 347 347 347 347 347 348 349 351 349 347 349 346 348 346 346 346 345 346
360 358 359 357 355 355 354 353 351 352 351 352 350 349 347 347 347 347 348 347 346 346 346 347 347 348 347 347 349 347 349 349 350 350 347 348 342 349 348 348 348 348 347
358 357 357 358 355 354 353 352 352 351 351 350 351 349 348 348 347 347 346 348 348 347 342 345 347 347 349 348 349 346 350 349 345 350 349 346 345 349 347 346 350 347 348
357 357 357 358 356 355 355 353 353 354 351 350 351 349 350 349 348 347 348 348 345 338 344 348 348 348 347 347 348 347 345 344 340 348 347 348 348 348 345 343 344 345 346
358 357 357 358 357 356 354 351 354 350 352 350 350 351 350 348 351 347 348 347 345 338 342 343 342 344 346 347 345 344 342 342 341 343 346 349 350 349 347 345 347 349 347
358 356 358 356 353 355 355 354 351 356 353 352 351 352 351 350 348 349 351 349 345 345 341 338 337 339 344 345 344 342 341 338 343 344 345 345 346 347 348 347 346 347 349
356 354 357 353 352 355 356 355 353 351 351 352 351 353 350 351 348 346 348 348 346 348 348 345 339 338 338 339 340 340 339 338 341 341 343 344 345 345 345 347 346 346 346
359 354 356 354 354 355 354 353 352 352 352 352 352 351 350 353 349 346 339 341 342 346 348 346 345 338 338 337 336 338 340 339 339 338 332 329 341 345 345 347 346 344 343
361 359 357 356 351 354 354 353 353 353 352 352 352 350 351 349 349 347 335 340 345 346 343 345 343 341 343 341 337 334 335 333 334 331 327 325 327 340 344 345 347 346 346
363 360 358 356 355 354 355 353 353 354 353 353 353 351 351 347 347 347 334 332 345 346 344 345 344 343 342 338 337 337 338 334 332 328 326 325 323 325 329 335 346 345 343
361 361 360 358 356 355 354 354 354 353 351 353 351 351 350 349 344 341 338 332 334 343 346 344 343 344 344 342 338 337 336 334 332 327 329 325 331 333 327 327 330 339 339
360 358 359 358 358 355 354 352 351 350 349 349 349 349 349 351 348 344 336 333 332 332 341 343 343 342 343 342 341 338 337 334 330 326 328 329 333 335 336 337 336 332 336
360 359 358 357 356 355 353 351 344 337 338 346 346 349 350 344 343 346 342 338 336 333 331 337 340 341 341 340 339 337 333 333 330 326 324 328 330 334 336 337 337 336 334
353 354 353 352 353 350 349 347 344 345 343 342 345 338 337 335 337 339 345 342 340 339 335 331 331 334 337 339 339 338 335 332 330 325 324 326 328 332 335 336 336 333 331
345 347 345 345 344 346 345 344 344 345 340 336 340 339 336 337 340 339 343 344 342 339 336 332 332 334 336 336 336 334 332 331 327 325 323 325 327 330 335 335 334 332 332
344 345 345 345 346 343 344 344 343 343 342 341 339 340 340 342 342 342 343 342 341 338 336 334 334 336 337 336 334 333 332 331 329 327 328 329 330 330 332 331 331 332 330
344 340 343 342 343 343 342 343 342 342 342 344 343 341 341 338 338 341 341 340 340 338 336 336 337 335 335 335 333 333 332 330 327 326 326 329 330 330 330 330 330 329 327
343 343 344 342 341 341 341 342 342 342 343 342 340 338 338 338 337 338 340 338 337 338 338 337 336 336 331 332 333 333 331 327 325 325 324 322 322 326 328 328 326 324 325
341 338 338 340 341 342 341 340 340 339 338 337 336 336 334 335 335 334 335 334 335 335 336 335 335 334 333 331 331 330 327 324 324 323 324 323 319 317 319 321 323 325 324
340 339 337 338 338 338 338 339 338 337 337 336 336 331 331 331 331 331 331 332 333 335 336 335 334 330 328 325 325 325 324 323 322 323 326 326 327 325 324 324 322 321 321
339 340 340 340 339 338 338 338 337 337 337 336 335 331 328 328 330 331 331 330 331 331 331 330 329 326 325 325 325 324 321 320 319 321 321 323 325 327 325 323 322 321 321
335 337 337 337 334 335 335 334 335 336 336 335 335 334 333 331 329 328 327 327 328 328 327 326 326 325 325 324 323 322 321 320 320 320 322 323 324 324 324 323 321 321 321
332 330 331 331 331 334 333 335 335 336 334 334 335 334 333 332 331 329 329 327 326 326 327 326 325 325 324 323 323 322 322 321 321 321 322 322 321 320 323 321 321 321 320
331 329 329 329 329 329 330 333 331 332 333 332 332 334 333 332 330 331 330 330 328 326 327 326 325 325 325 325 324 322 322 324 323 322 321 321 320 320 320 320 320 320 320
323 322 321 321 321 321 322 324 326 327 328 330 330 331 330 330 329 328 328 329 329 328 327 327 327 326 326 325 323 322 322 322 322 320 318 316 318 317 319 320 319 320 319
Wind_Speed
18 19 18 21 22 23 23 23 20 20 19 16 19 16 17 15 15 16 16 16 16 18 20 22 25 24 21 23 24 23 17 19 25 16 22 24 24 25 29 27 27 26 23
16 17 19 17 16 15 19 19 18 16 16 15 12 13 14 14 13 14 14 17 17 20 24 26 26 22 21 21 22 25 23 22 22 17 24 28 23 31 28 31 28 27 25
16 16 17 17 17 16 15 18 14 17 16 12 12 11 11 12 12 13 15 13 15 18 17 18 19 19 16 18 18 19 15 21 18 16 16 16 23 27 28 30 28 25 27
16 16 17 19 18 16 16 13 13 10 13 13 13 12 11 11 10 11 10 9 12 14 19 19 16 17 17 19 20 21 19 14 11 11 8 18 25 26 27 28 27 24 26
20 19 19 18 13 15 19 17 15 16 15 16 14 12 11 10 10 9 9 10 13 12 11 6 10 14 19 20 22 19 12 16 9 10 12 14 16 20 25 26 25 20 24
24 21 21 21 18 20 21 16 20 17 14 15 17 15 13 9 10 12 13 10 11 7 5 2 5 12 18 22 22 21 12 10 11 13 8 12 11 15 16 19 18 21 21
24 22 23 23 25 23 20 17 17 18 20 15 16 15 16 15 16 14 21 15 13 8 7 7 6 4 12 17 22 19 19 17 11 11 12 15 15 16 16 17 20 19 18
22 23 25 22 22 24 25 24 23 24 22 20 20 20 18 19 17 17 17 15 16 13 11 8 6 4 4 9 13 16 16 20 18 14 13 12 14 17 21 18 16 17 17
20 19 23 23 24 25 27 26 24 24 25 23 21 18 17 19 20 19 17 18 20 15 13 14 11 12 10 11 9 10 13 15 16 16 13 16 19 18 19 20 19 20 23
19 19 22 25 24 26 26 26 23 24 22 21 21 20 20 22 21 19 17 16 13 11 11 14 14 12 14 14 14 14 14 14 16 18 19 19 20 20 15 15 16 19 20
17 19 21 25 25 25 25 23 24 25 24 24 22 19 18 20 21 18 19 19 16 15 14 15 14 13 12 13 17 17 18 16 18 18 20 22 19 20 21 20 18 14 13
19 20 23 23 25 25 25 24 22 21 22 21 21 22 22 22 22 22 20 21 23 20 15 17 17 15 15 13 13 18 18 16 15 13 11 12 11 9 13 17 22 23 21
19 20 23 23 24 25 24 22 14 11 16 19 22 20 19 18 22 20 22 22 23 25 23 18 15 12 16 16 16 17 20 19 17 16 15 13 14 12 9 12 15 24 26
12 14 17 19 20 21 26 20 23 25 15 27 13 15 14 18 23 27 24 26 25 26 28 28 19 17 17 18 19 18 20 21 19 18 15 15 14 16 19 21 20 18 18
9 10 8 9 13 13 14 14 18 31 38 32 24 24 26 26 27 33 33 29 24 26 29 27 24 21 22 23 24 22 21 22 23 20 20 18 18 17 20 17 16 14 11
3 5 7 7 6 10 11 10 13 17 24 36 27 26 29 36 27 27 30 24 18 18 26 25 23 21 22 22 22 20 18 16 17 20 24 24 22 19 21 22 16 17 19
3 8 8 8 6 5 7 7 6 7 9 16 18 21 24 31 20 16 17 19 20 21 23 24 25 25 23 21 22 20 21 20 18 22 22 22 22 24 23 20 20 23 22
3 5 3 6 7 7 8 6 5 5 6 5 10 11 11 11 14 19 19 18 22 25 26 25 24 27 27 26 23 23 20 17 21 22 21 23 24 25 25 23 22 20 21
1 3 3 5 3 3 2 4 4 4 6 6 12 15 13 13 12 18 20 21 24 26 26 26 25 24 30 28 24 25 23 20 19 19 21 22 23 25 25 23 24 22 19
5 6 2 1 4 3 1 2 3 5 5 5 5 9 9 8 12 16 20 25 25 26 27 28 30 30 30 27 20 19 20 17 14 13 10 11 15 19 19 16 15 18 20
2 5 3 3 1 3 2 1 1 2 4 5 5 9 9 11 12 12 13 17 24 28 30 31 31 30 27 22 23 21 16 17 14 10 17 16 18 18 15 19 19 18 19
1 2 3 3 4 4 2 5 4 6 4 7 10 9 9 9 9 8 5 5 6 8 12 15 15 17 22 26 26 26 29 25 23 20 21 18 16 22 21 19 19 17 14
1 2 3 4 4 5 5 4 4 6 5 5 6 11 11 10 7 7 6 5 3 2 3 5 8 15 21 22 24 27 26 25 25 25 24 20 19 16 15 12 14 15 19
3 6 5 6 8 4 7 5 6 6 8 7 6 7 8 9 10 13 12 8 5 3 6 8 10 13 16 18 21 23 23 23 23 22 23 24 29 33 29 25 22 22 20
5 5 5 6 5 6 6 6 9 6 6 6 5 7 8 4 3 7 8 8 7 5 4 6 8 12 20 23 24 25 24 25 26 25 20 18 17 20 20 21 20 21 20
7 7 8 7 8 8 8 9 9 8 8 8 9 7 7 5 5 7 8 8 10 10 8 10 12 12 13 13 14 16 19 19 18 17 16 18 20 15 16 21 26 26 23
Wind_Direction
214 218 223 233 240 239 243 242 242 238 241 235 248 245 238 245 239 245 254 257 255 256 263 264 268 268 248 235 228 226 227 223 231 221 214 215 204 203 208 224 227 236 243
216 215 222 230 241 238 227 232 229 236 230 249 234 240 238 237 243 246 252 265 261 261 267 272 272 254 247 234 217 225 223 230 232 221 201 208 205 209 212 219 222 235 241
208 206 207 224 232 229 224 232 225 221 232 226 240 237 233 240 245 248 252 265 269 281 282 278 264 242 238 212 217 224 229 232 256 227 205 231 210 200 215 219 221 223 225
204 202 209 223 226 221 222 219 213 226 215 215 231 235 231 233 235 240 251 270 285 275 287 273 248 233 219 215 216 219 225 257 310 243 197 177 192 204 217 219 213 219 214
203 199 209 214 211 203 221 211 199 215 214 211 219 226 223 226 233 234 228 250 275 292 307 277 250 239 229 221 220 223 246 232 290 228 212 205 212 211 212 216 223 221 219
209 202 207 215 201 208 221 210 206 198 204 211 208 208 219 213 215 235 237 265 275 290 339 286 274 244 237 223 215 210 209 194 229 259 241 225 221 225 223 217 221 218 218
212 202 214 221 207 206 212 214 203 207 215 212 216 212 222 206 221 221 228 254 263 270 278 278 295 277 236 231 221 209 213 208 235 255 247 244 243 240 237 234 228 231 235
217 211 215 223 203 205 205 214 214 213 214 216 219 227 221 214 218 223 219 236 241 251 262 262 245 223 213 209 224 227 221 214 228 244 240 256 253 241 242 244 235 241 250
229 222 214 224 214 215 214 216 214 215 216 219 221 224 217 226 237 238 226 209 219 233 239 237 245 233 225 224 228 221 219 220 220 231 246 270 270 259 252 245 239 232 236
232 234 222 230 226 222 224 222 224 220 220 219 218 219 215 234 235 245 229 211 203 223 236 235 245 245 239 228 229 228 233 231 242 249 256 264 258 252 241 238 229 221 226
245 245 243 237 235 230 231 234 230 225 223 218 221 217 221 233 237 241 227 206 192 235 243 249 247 253 278 252 232 225 235 240 241 247 250 257 259 249 243 233 219 209 218
236 239 244 248 239 237 231 233 233 236 228 229 218 215 216 229 241 234 229 223 207 200 223 251 257 255 252 265 253 238 242 247 253 260 268 256 244 248 239 227 218 217 215
250 245 243 247 244 242 244 241 220 254 254 253 245 232 223 230 247 254 238 228 222 221 216 227 237 247 240 244 252 262 248 247 252 249 230 258 256 265 251 220 206 215 220
247 244 251 253 255 253 247 231 229 258 287 253 264 267 249 244 252 248 245 236 228 228 228 228 238 245 245 245 245 251 251 248 248 244 222 233 228 235 222 212 212 221 236
240 258 281 290 287 276 273 252 258 244 247 237 239 227 262 278 269 264 251 247 236 239 233 230 235 240 242 240 247 251 254 248 242 227 216 225 223 229 225 223 224 238 239
250 284 287 266 275 292 298 278 265 274 247 234 237 246 268 283 280 260 242 244 257 245 220 226 233 242 250 252 251 253 247 252 235 232 231 226 219 217 211 209 214 211 215
241 246 259 274 273 281 268 278 287 282 259 254 262 264 268 265 268 256 247 254 252 223 216 224 233 233 233 238 237 235 231 242 247 229 220 222 221 222 215 208 216 224 230
324 353 334 279 268 260 236 242 228 248 257 258 260 274 290 278 257 244 237 235 230 226 229 239 245 238 232 229 227 232 225 235 236 243 226 219 224 224 219 215 219 227 230
350 307 316 319 351 326 313 298 287 267 258 260 280 283 278 272 268 250 243 239 242 243 246 243 248 244 234 239 235 241 230 217 223 242 238 230 227 227 224 221 228 235 236
342 336 248 319 351 359 292 305 302 314 326 332 301 288 305 284 276 267 256 249 247 245 244 250 247 248 240 235 235 230 206 204 227 251 254 247 238 234 229 222 221 236 237
340 330 76 25 265 252 303 326 326 317 316 301 299 335 337 321 314 303 279 257 251 248 250 250 254 252 238 201 191 194 196 192 195 222 246 250 254 246 230 233 235 237 238
346 274 300 273 238 288 280 298 316 319 324 318 328 349 345 338 326 313 333 321 266 254 250 251 255 239 222 219 223 220 210 206 196 201 207 220 242 236 222 225 233 242 240
84 57 21 24 13 2 2 332 267 269 269 288 275 291 309 335 339 342 334 336 334 210 200 228 224 224 226 220 217 213 213 219 217 216 225 225 239 260 242 231 212 222 234
142 42 29 30 27 42 5 336 323 298 283 268 284 268 291 310 323 337 344 356 326 258 244 249 250 238 235 238 239 240 244 249 239 229 264 258 247 235 241 226 240 233 235
107 65 64 45 16 17 23 26 14 1 340 345 353 311 286 240 276 302 317 311 327 335 318 294 272 256 252 253 251 251 253 259 261 261 247 242 226 229 237 236 241 243 240
78 71 62 54 46 37 28 22 17 19 6 13 3 353 356 326 302 297 292 272 241 243 254 260 274 276 264 264 262 255 252 250 242 220 226 229 227 232 245 247 254 244 240